Wetterdaten: aktuell Montag, 31.08.2026 08:14
Datum Zeit Temp. A. Feuchte A. Luftdruck Regen Wind Richtung Richtung Taupunkt Windchill
31.08.2026 08:14 18,8 °C 82 % 1007,1 hPa 0,0 l/m² 4,8 km/h (1 Bft) SO±22.5° 140 ° 15,7 °C 18,8 °C
31.08.2026 08:12 18,8 °C 82 % 1007,1 hPa 0,0 l/m² 1,2 km/h (1 Bft) SO±22.5° 145 ° 15,7 °C 18,8 °C
31.08.2026 08:10 18,7 °C 83 % 1007,1 hPa 0,0 l/m² 1,2 km/h (1 Bft) SO±22.5° 145 ° 15,8 °C 18,7 °C
31.08.2026 08:08 18,6 °C 83 % 1007,1 hPa 0,0 l/m² 0,8 km/h (0 Bft) SO 135 ° 15,7 °C 18,6 °C
31.08.2026 08:06 18,6 °C 83 % 1007,1 hPa 0,0 l/m² 3,4 km/h (1 Bft) S-SO 150 ° 15,7 °C 18,6 °C
31.08.2026 08:05 18,6 °C 83 % 1007,1 hPa 0,0 l/m² 3,3 km/h (1 Bft) SO±22.5° 125 ° 15,7 °C 18,6 °C
31.08.2026 08:03 18,6 °C 83 % 1007,1 hPa 0,0 l/m² 3,3 km/h (1 Bft) SO±22.5° 125 ° 15,7 °C 18,6 °C
31.08.2026 08:01 18,6 °C 83 % 1007,1 hPa 0,0 l/m² 1,2 km/h (1 Bft) O-SO 120 ° 15,7 °C 18,6 °C
31.08.2026 07:59 18,5 °C 84 % 1007,1 hPa 0,0 l/m² 1,5 km/h (1 Bft) SO 130 ° 15,7 °C 18,5 °C
31.08.2026 07:57 18,5 °C 84 % 1007,1 hPa 0,0 l/m² 4,3 km/h (1 Bft) SO 130 ° 15,7 °C 18,5 °C
31.08.2026 07:55 18,5 °C 84 % 1007,1 hPa 0,0 l/m² 4,3 km/h (1 Bft) SO 130 ° 15,7 °C 18,5 °C
31.08.2026 07:53 18,5 °C 84 % 1007,1 hPa 0,0 l/m² 0,7 km/h (0 Bft) SO 140 ° 15,7 °C 18,5 °C
31.08.2026 07:51 18,4 °C 84 % 1007,1 hPa 0,0 l/m² 1,3 km/h (1 Bft) O±22.5° 95 ° 15,6 °C 18,4 °C
31.08.2026 07:49 18,3 °C 84 % 1007,1 hPa 0,0 l/m² 1,3 km/h (1 Bft) O±22.5° 95 ° 15,5 °C 18,3 °C
31.08.2026 07:47 18,3 °C 84 % 1007,1 hPa 0,0 l/m² 2,1 km/h (1 Bft) O 90 ° 15,5 °C 18,3 °C
31.08.2026 07:45 18,3 °C 84 % 1007,1 hPa 0,0 l/m² 0,4 km/h (0 Bft) O 90 ° 15,5 °C 18,3 °C
31.08.2026 07:43 18,2 °C 84 % 1007,1 hPa 0,0 l/m² 0,3 km/h (0 Bft) O 85 ° 15,4 °C 18,2 °C
31.08.2026 07:41 18,2 °C 84 % 1007,1 hPa 0,0 l/m² 0,3 km/h (0 Bft) O 85 ° 15,4 °C 18,2 °C
31.08.2026 07:39 18,2 °C 84 % 1007,1 hPa 0,0 l/m² 0,0 km/h (0 Bft) O 85 ° 15,4 °C 18,2 °C
31.08.2026 07:37 18,2 °C 84 % 1007,1 hPa 0,0 l/m² 0,7 km/h (0 Bft) O 85 ° 15,4 °C 18,2 °C
31.08.2026 07:34 18,2 °C 84 % 1007,1 hPa 0,0 l/m² 0,0 km/h (0 Bft) O 85 ° 15,4 °C 18,2 °C
31.08.2026 07:32 18,2 °C 84 % 1007,1 hPa 0,0 l/m² 0,0 km/h (0 Bft) O 85 ° 15,4 °C 18,2 °C
31.08.2026 07:30 18,1 °C 84 % 1007,1 hPa 0,0 l/m² 0,1 km/h (0 Bft) O 85 ° 15,4 °C 18,1 °C
31.08.2026 07:28 18,1 °C 84 % 1007,1 hPa 0,0 l/m² 0,4 km/h (0 Bft) O-SO±22.5° 105 ° 15,4 °C 18,1 °C
31.08.2026 07:26 18,2 °C 84 % 1007,1 hPa 0,0 l/m² 0,4 km/h (0 Bft) O-SO±22.5° 105 ° 15,4 °C 18,2 °C
31.08.2026 07:24 18,1 °C 84 % 1007,1 hPa 0,0 l/m² 6,9 km/h (2 Bft) SO±67.5° 130 ° 15,4 °C 17,9 °C
31.08.2026 07:23 18,1 °C 84 % 1007,1 hPa 0,0 l/m² 0,1 km/h (0 Bft) SO 140 ° 15,4 °C 18,1 °C
31.08.2026 07:21 18,1 °C 84 % 1007,1 hPa 0,0 l/m² 0,4 km/h (0 Bft) SO 145 ° 15,4 °C 18,1 °C
31.08.2026 07:19 18,1 °C 84 % 1007,1 hPa 0,0 l/m² 0,4 km/h (0 Bft) SO 145 ° 15,4 °C 18,1 °C
31.08.2026 07:17 18,1 °C 84 % 1007,1 hPa 0,0 l/m² 0,4 km/h (0 Bft) SO 140 ° 15,4 °C 18,1 °C
31.08.2026 07:15 18,1 °C 84 % 1007,1 hPa 0,0 l/m² 0,3 km/h (0 Bft) O-SO±22.5° 115 ° 15,4 °C 18,1 °C
31.08.2026 07:13 18,1 °C 84 % 1007,1 hPa 0,0 l/m² 2,6 km/h (1 Bft) O 90 ° 15,4 °C 18,1 °C
31.08.2026 07:11 18,1 °C 84 % 1007,1 hPa 0,0 l/m² 2,6 km/h (1 Bft) O 90 ° 15,4 °C 18,1 °C
31.08.2026 07:09 18,1 °C 84 % 1007,1 hPa 0,0 l/m² 2,6 km/h (1 Bft) O 90 ° 15,4 °C 18,1 °C
31.08.2026 07:07 18,1 °C 84 % 1006,1 hPa 0,0 l/m² 0,4 km/h (0 Bft) SO±67.5° 140 ° 15,4 °C 18,1 °C
31.08.2026 07:05 18,1 °C 84 % 1006,1 hPa 0,0 l/m² 0,4 km/h (0 Bft) SO±67.5° 140 ° 15,4 °C 18,1 °C
31.08.2026 07:03 18,1 °C 84 % 1006,1 hPa 0,0 l/m² 0,1 km/h (0 Bft) SO 140 ° 15,4 °C 18,1 °C
31.08.2026 07:01 18,0 °C 84 % 1006,1 hPa 0,0 l/m² 1,3 km/h (1 Bft) S-SO±45° 160 ° 15,3 °C 18,0 °C
31.08.2026 06:59 18,0 °C 84 % 1006,1 hPa 0,0 l/m² 0,3 km/h (0 Bft) SO 145 ° 15,3 °C 18,0 °C
31.08.2026 06:57 18,0 °C 84 % 1006,1 hPa 0,0 l/m² 0,3 km/h (0 Bft) SO 145 ° 15,3 °C 18,0 °C
31.08.2026 06:54 18,0 °C 84 % 1006,1 hPa 0,0 l/m² 6,9 km/h (2 Bft) S±22.5° 175 ° 15,3 °C 17,8 °C
_ Min-Zeit 05:49 00:01 00:47 - 00:01 - - 00:15 06:54
Minimum _ 18,0 °C 43 % 1005,0 hPa - 0,0 km/h (0 Bft) - - 7,7 °C 17,8 °C
_ Max-Zeit 00:01 06:50 07:09 04:02 06:54 - - 08:10 00:01
Maximum _ 21,0 °C 84 % 1007,1 hPa 1,8 l/m² 6,9 km/h
S (2 Bft)
- - 15,8 °C 21,0 °C
Durchschnitt _ 19,0 °C 68 % 1006,0 hPa #9,4 l/m² 0,6 km/h (0 Bft) SO - 12,5 °C 19,0 °C